{"data":{"norad_id":48974,"epoch":"2026-05-24T23:12:48.233088Z","epoch_age_seconds":74304,"freshness":"FRESH","line1":"1 48974U 21060H   26144.96722492 -.00000060  00000+0 -19039-3 0  9991","line2":"2 48974  87.9099 233.3950 0002097  99.7485 260.3883 13.16596390236577","mean_motion":13.1659639,"eccentricity":0.0002097,"inclination_deg":87.9099,"raan_deg":233.395,"arg_perigee_deg":99.7485,"mean_anomaly_deg":260.3883,"bstar":-0.00019039,"rev_number":23657,"period_min":109.37292635293,"perigee_km":1196.1598215036,"apogee_km":1199.3371478759,"semimajor_km":7575.8854846898,"source":"CELESTRAK","updated_at":"2026-05-25T13:38:22.450970Z"}}